Location: Newark
(49.8969°N, 3.3422°E)
Time: 00:12:30
(UTC+00:00)

A-11 Canister half - Pass Details

Date: 30 January 2020
Orbit: 1517 x 1683 km, 47.2° (Epoch: 24 February)

Event Time Altitude Azimuth Distance (km) Brightness Sun altitude
Rises 22:27:37 0° 234° (SW) 4,768 - -52.8°
Reaches altitude 10° 22:30:47 10° 230° (SW) 3,763 - -53.1°
Maximum altitude 22:39:58 57° 155° (SSE) 1,765 - -53.9°
Drops below altitude 10° 22:48:57 10° 80° (E) 3,686 - -54.7°
Sets 22:52:02 0° 77° (ENE) 4,665 - -54.9°
